Regional Weather Roundup
Issued by NWS

Home | Current Version | Previous Version | Text Only | Print | Product List | Glossary On
Versions: 1 2 3 4 5 6 7 8 9 10 11 12 13 14 15 16 17 18 19 20 21 22 23 24 25 26 27 28 29 30 31 32 33 34 35 36 37 38 39 40 41 42 43 44 45 46 47 48 49 50
749
ASUS44 KJAN 202310
RWRMS

MISSISSIPPI HOURLY WEATHER ROUNDUP
NATIONAL WEATHER SERVICE JACKSON MS
600 PM CDT MON MAY 20 2019

NOTE: "FAIR: INDICATES FEW OR NO CLOUDS BELOW 12,000 FEET WITH NO
SIGNIFICANT WEATHER AND/OR OBSTRUCTIONS TO VISIBILITY.

MSZ001>002-007>008-010>013-018>021-025>028-034>036-210000-
NORTHWEST MISSISSIPPI

CITY           SKY/WX    TMP DP  RH WIND       PRES   REMARKS
BATESVILLE     FAIR      86  72  62 E3        29.91F HX  92
CLARKSDALE     MOSUNNY   90  73  58 SE8       29.90F HX  98
CLEVELAND      FAIR      86  72  63 SE9       29.89F HX  92
GREENWOOD      FAIR      88  68  51 S7        29.90F HX  91
GREENVILLE     FAIR      86  71  60 S9        29.88F HX  91
OLIVE BRANCH   MOSUNNY   82  66  57 S7        29.92F
OXFORD         FAIR      84  66  54 SE6G12    29.95F
TUNICA           N/A     82  70  65 SE7       29.91F
WINONA         FAIR      87  70  56 CALM      29.92F HX  92
$$

MSZ003>006-009-014>017-022>024-029>033-037>039-210000-
NORTHEAST MISSISSIPPI

CITY           SKY/WX    TMP DP  RH WIND       PRES   REMARKS
ABERDEEN       FAIR      84  77  79 E5        29.96F HAZE    HX  94
COLUMBUS AFB   FAIR      87  69  55 E6        29.94F HX  91
CORINTH        FAIR      86  63  45 VRB6      29.95F
GOLDN TRIANGLE FAIR      87  70  56 E6        29.95F HX  92
STARKVILLE     FAIR      86  68  54 S6        29.95F
TUPELO         FAIR      87  65  47 VRB3      29.94F
$$

MSZ040-058-210000-
CENTRAL MISSISSIPPI

CITY           SKY/WX    TMP DP  RH WIND       PRES   REMARKS
JACKSON INTL   FAIR      88  68  51 S8        29.91F HX  91
JACKSON HAWKNS FAIR      88  71  57 S9        29.92S HX  94
MADISON        FAIR      86  70  58 SE3       29.91F HX  90
MERIDIAN KEY   NOT AVBL
MERIDIAN NAS   FAIR      89  68  49 S5        29.95F HX  93
RAYMOND        FAIR      90  75  62 S6        29.91S HX 100
VICKSBURG VKS  CLEAR     88  72  58 S6        29.89F HX  94
$$

MSZ059>079-210000-
SOUTH MISSISSIPPI

CITY           SKY/WX    TMP DP  RH WIND       PRES   REMARKS
BROOKHAVEN     FAIR      88  72  58 SE8       29.94S HX  94
HATTIESBURG    FAIR      81  69  67 S10       29.95R
LAUREL         PTCLDY    87  71  57 SE7       29.93S HX  93
MCCOMB         FAIR      85  71  63 S12       29.93S HX  90
NATCHEZ        FAIR      88  73  61 S9        29.91S HX  95
PINE BELT      FAIR      86  73  65 S12       29.95R HX  93
$$

MSZ080>082-210000-
COASTAL MISSISSIPPI

CITY           SKY/WX    TMP DP  RH WIND       PRES   REMARKS
BAY ST LOUIS   MOSUNNY   86  73  66 S9        29.94S HX  93
BILOXI         FAIR      83  75  76 S9        29.96  HX  90
PASCAGOULA     PTSUNNY   86  72  62 SW5       29.96S HX  92
GULFPORT       FAIR      83  74  74 S9        29.95S
$$

LAZ007>009-015>016-023>026-210000-
NORTHEAST LOUISIANA

CITY           SKY/WX    TMP DP  RH WIND       PRES   REMARKS
BASTROP        FAIR      86  71  60 S5        29.87F HX  92
TALLULAH/VBURG FAIR      87  73  62 S8        29.89F HX  94
VIDALIA        FAIR      87  74  66 S9        29.89S HX  95
$$




USA.gov is the U.S. government's official web portal to all federal, state and local government web resources and services.